Regional Weather Roundup
Issued by NWS

Home | Current Version | Previous Version | Text Only | Print | Product List | Glossary On
Versions: 1 2 3 4 5 6 7 8 9 10 11 12 13 14 15 16 17 18 19 20 21 22 23 24 25 26
000
ASUS42 KTBW 170410
RWRFL
FLORIDA REGIONAL WEATHER ROUNDUP
NATIONAL WEATHER SERVICE TAMPA BAY RUSKIN FL
1200 AM EDT THU APR 17 2014

NOTE: "FAIR" INDICATES FEW OR NO CLOUDS BELOW 12,000 FEET WITH NO
SIGNIFICANT WEATHER AND/OR OBSTRUCTIONS TO VISIBILITY.


FLZ001>010-012>015-112-114-115-170500-
PANHANDLE FLORIDA

CITY           SKY/WX    TMP DP  RH WIND       PRES   REMARKS
PENSACOLA      PTCLDY    55  48  77 NE3       30.18R
PENSACOLA NAS  PTCLDY    48  48 100 N3        30.18R
MILTON NAS     PTCLDY    50  44  80 E5        30.18F
CRESTVIEW      CLEAR     49  43  80 NE3       30.21R
DUKE FIELD     PTCLDY    50  41  69 NE5       30.19R
VALPARAISO     PTCLDY    58  42  56 NE5       30.18S
MARY ESTHER    CLEAR     54  41  60 NE3       30.17S
TRI COUNTY     FAIR      54  43  66 NE7       30.22R
PANAMA CITY    FAIR      55  46  71 NE5       30.18R
TYNDALL AFB    CLEAR     58  51  77 E8        30.19R
APALACHICOLA   MOCLDY    60  48  64 NE9       30.18F

STATION/POSITION SKY/WX   TEMP    WIND        PRES    WAVE   SWELL
                          AIR SEA DIR/SP/G            HT/PER HT/PER
                          (F)     (DEG/KT/KT) (MB)    (FT/S) (FT/S)
30.1N   87.6W              62 66  110/ 12/ 14 1021.8R   2/ 5
29.2N   88.2W              63 69  100/ 19/ 25 1020.9R
28.8N   86.0W              66 69   80/ 19/ 23 1020.6F   5/ 6
PANAMA CITY BEAC           59 67   90/  9/ 15 1021.8S
CAPE SAN BLAS    NOT AVBL
TOWER C                    62      80/ 26/ 30 1021.5F
28.5N   84.5W              66 69   80/ 23/ 27 1020.1S   6/ 5

$$
FLZ011-016>038-118-127-128-134-139-239-170500-
NORTH FLORIDA

CITY           SKY/WX    TMP DP  RH WIND       PRES   REMARKS
MARIANNA       CLEAR     54  45  71 E7        30.22R
TALLAHASSEE    CLEAR     57  46  66 E8        30.23S
PERRY          FAIR      54  46  76 E6        30.24S
CROSS CITY       N/A     55  47  74 NE9       30.22S
GAINESVILLE    CLOUDY    53  48  83 NE5       30.23S
MAYPORT NAS    CLOUDY    61  54  77 NE18G30   30.24R
JACKSONVILLE   CLOUDY    59  54  83 NE12      30.25R
JAX NAS        MOCLDY    62  54  74 NE12      30.25R
JAX CRAIG      CLOUDY    62  54  74 NE12      30.24R
JAX CECIL      CLOUDY    54  50  87 N5        30.25R
FERNANDINA BEA FAIR      61  54  77 NE17G28   30.23S
ST AUGUSTINE   MOCLDY    63  58  83 NE20G25   30.23S

STATION/POSITION SKY/WX   TEMP    WIND        PRES    WAVE   SWELL
                          AIR SEA DIR/SP/G            HT/PER HT/PER
                          (F)     (DEG/KT/KT) (MB)    (FT/S) (FT/S)
SHELL POINT                58      60/  7/ 14 1021.8R
KEATON BEACH               55      60/ 14/ 19 1023.0S
CEDAR KEY                  58      50/ 15/ 19 1022.6R
FERNANDINA                 60 65   40/  7/ 14 1023.4R
30.7N   81.3W                 64                N/A     8/ 6   2/11
MAYPORT                    61 63   50/ 22/ 25   N/A
31.4N   80.9W              60 64   50/ 23/ 29 1024.2F   7/ 7   3/12
ST AUGUSTINE               63      30/ 22/ 23 1023.5S

$$
FLZ040-043>046-052-053-057-058-063-144-170500-
INTERIOR CENTRAL FLORIDA

CITY           SKY/WX    TMP DP  RH WIND       PRES   REMARKS
OCALA          CLEAR     55  46  71 N6        30.21S
THE VILLAGES     N/A     59  55  88 N3        30.19S
LEESBURG       CLOUDY    60  56  86 N8        30.19S
SANFORD        CLOUDY    63  58  83 NE7       30.17S
ORLANDO EXEC   CLEAR     64  58  80 N7        30.16F
ORLANDO INTL   CLEAR     65  57  75 N8        30.17S
WINTER HAVEN   CLEAR     62  57  83 N7        30.16S
LAKELAND       CLEAR     61  55  82 NE8       30.16R
BARTOW         FAIR      63  57  82 NE8       30.16S
OKEECHOBEE     MOCLDY    64  63  94 NE5       30.12R

$$
FLZ041-047-054-059-064-141-147-170500-
EAST CENTRAL FLORIDA

CITY           SKY/WX    TMP DP  RH WIND       PRES   REMARKS
DAYTONA BEACH  PTCLDY    65  54  67 NE8       30.20R
DELAND         CLEAR     61  55  82 CALM      30.19
JFK SPACE CTR  CLEAR     66  56  70 E8        30.15S
CAPE CANAVERAL CLEAR     68  58  68 NE7       30.14F
PATRICK AFB    CLEAR     70  62  74 NE18      30.14S
MELBOURNE      PTCLDY    70  61  73 NE15      30.14R
VERO BEACH     CLOUDY    73  65  75 NE15G23   30.12S
FT PIERCE      CLOUDY    74  64  71 NE7G22    30.11S
STUART         CLOUDY    72  68  88 E14       30.11S

STATION/POSITION SKY/WX   TEMP    WIND        PRES    WAVE   SWELL
                          AIR SEA DIR/SP/G            HT/PER HT/PER
                          (F)     (DEG/KT/KT) (MB)    (FT/S) (FT/S)
28.5N   80.2W              71 73   50/ 16/ 19 1020.8S
28.9N   78.5W              72 76   60/ 16/ 19 1021.0S   8/11   5/11
TRIDENT PIER               67 74   30/  8/ 10 1020.2F
28.4N   80.5W                 73                N/A     4/ 8
27.6N   80.2W                 73                N/A     6/ 8

$$
FLZ050-056-061-142-242-148-248-149-249-151-251-155-255-
160-260-170500-
WEST CENTRAL FLORIDA

CITY           SKY/WX    TMP DP  RH WIND       PRES   REMARKS
CRYSTAL RIVER  CLOUDY    57  52  82 NE8       30.19S
INVERNESS      CLOUDY    59  52  77 NE9G16    30.20R
BROOKSVILLE    CLEAR     58  54  86 NE7       30.18R
ZEPHYRHILLS    FAIR      59  57  94 NE8       30.18R
CLEARWATER     CLEAR     64  57  78 NE13G18   30.15R
TAMPA INTL     PTCLDY    63  56  78 NE8       30.15S
TAMPA EXEC     CLEAR     63  55  77 NE5       30.16S
PLANT CITY     CLEAR     63  59  88 NE6       30.17S
MACDILL AFB    CLEAR     63  60  88 E13       30.14R
PETER O KNIGHT CLEAR     64  59  82 NE16      30.15R
ST PETERSBURG  CLEAR     67  61  81 NE20      30.13R
SARASOTA       CLOUDY    68  58  70 NE12      30.11R
VENICE           N/A     68  59  73 NE10G17   30.12S

STATION/POSITION SKY/WX   TEMP    WIND        PRES    WAVE   SWELL
                          AIR SEA DIR/SP/G            HT/PER HT/PER
                          (F)     (DEG/KT/KT) (MB)    (FT/S) (FT/S)
CEDAR KEY                  58      50/ 15/ 19 1022.6R
28.5N   84.5W              66 69   80/ 23/ 27 1020.1S   6/ 5
27.3N   84.3W                 72                N/A     4/ 6
CLEARWATER BEACH           64 72   50/  7/ 14 1020.3S
MIDDLE TAMPA BAY           67      80/ 16/ 19 1020.4R
VENICE                     69 74   70/  9/ 13 1019.1R

$$
FLZ066-069-070-075>078-162-262-165-265-170500-
SOUTHWEST FLORIDA AND KEYS

CITY           SKY/WX    TMP DP  RH WIND       PRES   REMARKS
PUNTA GORDA    PTCLDY    67  62  84 NE8       30.12S
FT MYERS       MOCLDY    71  63  75 E13       30.09R
SOUTHWEST INTL PTCLDY    70  62  76 NE10      30.10R
NAPLES         CLOUDY    73  69  87 E15       30.08R
MARATHON       PTCLDY    79  70  74 E13       30.05F
KEY WEST NAS   CLOUDY    74  70  87 NE14      30.06S
KEY WEST INTL  HVY RAIN  74  70  87 NE10G21   30.06F

STATION/POSITION SKY/WX   TEMP    WIND        PRES    WAVE   SWELL
                          AIR SEA DIR/SP/G            HT/PER HT/PER
                          (F)     (DEG/KT/KT) (MB)    (FT/S) (FT/S)
VENICE                     69 74   70/  9/ 13 1019.1R
NAPLES                     73 76   80/ 11/ 14 1018.8S
26.0N   85.6W              69 80   60/ 10/ 14 1019.0R   3/ 7   3/ 7
DRY TORTUGAS     NOT AVBL
NW FL BAY                  78      80/ 15/ 16 1018.1R
SOMBRERO KEY               78      80/ 19/ 19 1018.2R
LONG KEY                   78 81   70/ 16/ 18 1018.9R
MOLASSES REEF              78 78   70/ 15/ 16 1018.0R

$$
FLZ067-068-071>074-168-172>174-170500-
SOUTHEAST FLORIDA

CITY           SKY/WX    TMP DP  RH WIND       PRES   REMARKS
W PALM BEACH   CLOUDY    75  68  78 E17G25    30.08S
FT LAUDER-EXEC TSTM      73  71  93 E13       30.08S FOG
FT LAUDERDALE  RAIN      74  74 100 NE14      30.07S FOG
POMPANO BEACH  TSTM      75  73  93 E13       30.08S
PEMBROKE PINES CLOUDY    74  71  91 N8        30.09S
OPA LOCKA      MOCLDY    76  68  76 NE7       30.08R
MIAMI          CLOUDY    77  69  76 NE9       30.08R
WEST KENDALL   PTCLDY    74  69  85 NE5       30.08R
HOMESTEAD      MOCLDY    76  69  78 E9        30.07S

STATION/POSITION SKY/WX   TEMP    WIND        PRES    WAVE   SWELL
                          AIR SEA DIR/SP/G            HT/PER HT/PER
                          (F)     (DEG/KT/KT) (MB)    (FT/S) (FT/S)
PORT EVERGLADES            74      30/ 10/ 20 1018.6
VIRGINIA KEY               77 78   80/ 13/ 15 1018.4R
LAKE WORTH                 75 76   50/ 17/ 21 1018.4S
FOWEY ROCKS                77 78   70/ 15/ 17 1018.0F
SETTLEMENT POINT           76      70/ 18/ 20 1019.4F

$$




USA.gov is the U.S. government's official web portal to all federal, state and local government web resources and services.